Weather History for Shenandoah, IA

Change the Weather History Date:

Thursday, March 29, 2012

  Actual Average Record
Temperature  
Mean Temperature 60 °F -  
Max Temperature 68 °F 58 °F 89 °F (1986)
Min Temperature 53 °F 35 °F 10 °F (1969)
Degree Days  
Heating Degree Days 4    
Growing Degree Days 10 (Base 50)    
Moisture  
Dew Point 52 °F    
Average Humidity 75    
Maximum Humidity 88    
Minimum Humidity 42    
Precipitation  
Precipitation 0.42 in - - ()
Sea Level Pressure  
Sea Level Pressure 29.81 in    
Wind  
Wind Speed 12 mph (ESE)    
Max Wind Speed 22 mph    
Max Gust Speed 29 mph    
Visibility 10 miles    
Events Rain    
Averages and records for this station are not official NWS values.
T = Trace of Precipitation, MM = Missing Value Source: NWS Daily Summary

Daily Weather History Graph

Daily Weather History Graph

Search for Another Location

Airport:

Trip Planner

Search our weather history database for the weather conditions in past years. The results will help you decide how hot, cold, wet, or windy it might be!

Date:

Astronomy

Mar. 29, 2012 Rise Set
Actual Time 7:09 AM CDT 7:43 PM CDT
Civil Twilight 6:41 AM CDT 8:11 PM CDT
Nautical Twilight 6:09 AM CDT 8:43 PM CDT
Astronomical Twilight 5:35 AM CDT 9:17 PM CDT
Moon 11:17 AM CDT (3/29) 1:37 AM CDT (3/29)
Length of Visible Light 13h 29m
Length of Day
12h 34m
Waxing Crescent, 39% of the Moon is Illuminated
Mar 29
Waxing Crescent
Mar 30
First Quarter
Apr 6
Full
Apr 13
Last Quarter
Apr 21
New

Hourly Weather History & Observations

Time (CDT) Temp. Dew Point Humidity Pressure Visibility Wind Dir Wind Speed Gust Speed Precip Events Conditions
12:15 AM 62.6 °F 39.2 °F 42% - 10.0 mi SE 4.6 mph - N/A   Mostly Cloudy
12:35 AM 55.4 °F 46.4 °F 72% 29.94 in 10.0 mi East 9.2 mph - 0.09 in Rain Light Rain
12:55 AM 55.4 °F 46.4 °F 72% 29.93 in 10.0 mi East 6.9 mph - 0.09 in Rain Light Rain
1:15 AM 55.4 °F 46.4 °F 72% 29.93 in 10.0 mi East 15.0 mph - N/A   Mostly Cloudy
1:35 AM 55.4 °F 46.4 °F 72% 29.92 in 10.0 mi East 17.3 mph 23.0 mph N/A Rain Light Rain
1:55 AM 55.4 °F 44.6 °F 67% 29.90 in 10.0 mi ESE 13.8 mph 21.9 mph N/A   Mostly Cloudy
2:15 AM 55.4 °F 46.4 °F 72% 29.90 in 10.0 mi ESE 15.0 mph - N/A   Mostly Cloudy
2:35 AM 55.4 °F 46.4 °F 72% 29.90 in 10.0 mi ESE 19.6 mph 23.0 mph N/A   Mostly Cloudy
2:55 AM 57.2 °F 44.6 °F 63% 29.90 in 10.0 mi ESE 20.7 mph 27.6 mph N/A   Scattered Clouds
3:15 AM 55.4 °F 46.4 °F 72% 29.91 in 10.0 mi ESE 15.0 mph 23.0 mph N/A   Mostly Cloudy
3:35 AM 55.4 °F 44.6 °F 67% 29.91 in 10.0 mi SE 13.8 mph - N/A   Overcast
3:55 AM 57.2 °F 44.6 °F 63% 29.89 in 10.0 mi ESE 15.0 mph 28.8 mph N/A   Mostly Cloudy
4:15 AM 55.4 °F 44.6 °F 67% 29.91 in 10.0 mi ESE 12.7 mph - N/A   Overcast
4:35 AM 53.6 °F 46.4 °F 77% 29.90 in 10.0 mi ESE 11.5 mph - 0.02 in Rain Light Rain
4:55 AM 55.4 °F 46.4 °F 72% 29.90 in 10.0 mi ESE 11.5 mph - 0.02 in   Overcast
5:15 AM 55.4 °F 46.4 °F 72% 29.90 in 10.0 mi ESE 10.4 mph - N/A Rain Light Rain
5:35 AM 55.4 °F 46.4 °F 72% 29.91 in 10.0 mi ESE 10.4 mph 19.6 mph N/A Rain Light Rain
5:55 AM 53.6 °F 46.4 °F 77% 29.91 in 10.0 mi ESE 12.7 mph - 0.04 in Rain Light Rain
6:15 AM 53.6 °F 46.4 °F 77% 29.90 in 10.0 mi ESE 16.1 mph - N/A   Overcast
6:35 AM 53.6 °F 46.4 °F 77% 29.91 in 10.0 mi ESE 10.4 mph - N/A   Overcast
6:55 AM 53.6 °F 46.4 °F 77% 29.91 in 10.0 mi East 4.6 mph - N/A   Overcast
7:15 AM 53.6 °F 46.4 °F 77% 29.91 in 10.0 mi ENE 4.6 mph - N/A   Overcast
7:35 AM 53.6 °F 46.4 °F 77% 29.91 in 10.0 mi ESE 9.2 mph - N/A   Overcast
7:55 AM 53.6 °F 46.4 °F 77% 29.91 in 10.0 mi ESE 13.8 mph - N/A   Overcast
8:15 AM 53.6 °F 48.2 °F 82% 29.90 in 10.0 mi ESE 15.0 mph 19.6 mph N/A   Overcast
8:35 AM 53.6 °F 48.2 °F 82% 29.89 in 10.0 mi ESE 16.1 mph - N/A   Overcast
8:55 AM 53.6 °F 48.2 °F 82% 29.88 in 10.0 mi ESE 16.1 mph - N/A   Overcast
9:15 AM 55.4 °F 50.0 °F 82% 29.88 in 10.0 mi SE 13.8 mph 17.3 mph N/A   Mostly Cloudy
9:35 AM 55.4 °F 51.8 °F 88% 29.88 in 10.0 mi SE 13.8 mph 19.6 mph N/A   Overcast
10:35 AM 60.8 °F 53.6 °F 77% 29.87 in 10.0 mi SE 16.1 mph 24.2 mph N/A   Scattered Clouds
10:55 AM 60.8 °F 53.6 °F 77% 29.86 in 10.0 mi SE 17.3 mph - N/A   Scattered Clouds
11:15 AM 60.8 °F 53.6 °F 77% 29.86 in 10.0 mi SE 19.6 mph 24.2 mph N/A   Mostly Cloudy
11:35 AM 60.8 °F 55.4 °F 82% 29.85 in 10.0 mi SE 17.3 mph 21.9 mph N/A   Overcast
11:55 AM 60.8 °F 53.6 °F 77% 29.84 in 10.0 mi SE 19.6 mph 26.5 mph N/A   Overcast
12:15 PM 62.6 °F 55.4 °F 77% 29.83 in 10.0 mi SE 19.6 mph 25.3 mph N/A   Overcast
12:35 PM 62.6 °F 55.4 °F 77% 29.81 in 10.0 mi SE 16.1 mph 21.9 mph N/A   Overcast
12:55 PM 64.4 °F 57.2 °F 77% 29.80 in 10.0 mi SSE 15.0 mph - N/A   Overcast
1:15 PM 62.6 °F 55.4 °F 77% 29.80 in 10.0 mi SSE 13.8 mph 21.9 mph N/A   Overcast
1:35 PM 64.4 °F 57.2 °F 77% 29.80 in 10.0 mi SSE 18.4 mph 25.3 mph N/A   Overcast
1:55 PM 62.6 °F 57.2 °F 82% 29.79 in 10.0 mi SSE 16.1 mph - N/A   Overcast
2:15 PM 62.6 °F 57.2 °F 82% 29.78 in 10.0 mi SSE 18.4 mph 23.0 mph N/A   Overcast
2:35 PM 62.6 °F 57.2 °F 82% 29.77 in 10.0 mi SSE 16.1 mph 24.2 mph N/A   Overcast
2:55 PM 64.4 °F 57.2 °F 77% 29.77 in 10.0 mi SSE 11.5 mph - N/A   Overcast
3:15 PM 64.4 °F 57.2 °F 77% 29.76 in 10.0 mi SSE 15.0 mph 18.4 mph N/A   Overcast
3:35 PM 66.2 °F 57.2 °F 73% 29.75 in 10.0 mi SE 16.1 mph 19.6 mph N/A   Mostly Cloudy
3:55 PM 66.2 °F 57.2 °F 73% 29.74 in 10.0 mi SSE 13.8 mph - N/A   Scattered Clouds
4:15 PM 66.2 °F 57.2 °F 73% 29.74 in 10.0 mi SE 15.0 mph - N/A   Scattered Clouds
4:35 PM 68.0 °F 59.0 °F 73% 29.73 in 10.0 mi SE 15.0 mph - N/A   Clear
4:55 PM 68.0 °F 59.0 °F 73% 29.73 in 10.0 mi SE 10.4 mph - N/A   Scattered Clouds
5:15 PM 66.2 °F 59.0 °F 78% 29.72 in 10.0 mi SE 12.7 mph - N/A   Scattered Clouds
5:35 PM 66.2 °F 59.0 °F 78% 29.71 in 10.0 mi ESE 11.5 mph - N/A   Scattered Clouds
5:55 PM 68.0 °F 59.0 °F 73% 29.70 in 10.0 mi ESE 15.0 mph 19.6 mph N/A   Clear
6:15 PM 66.2 °F 57.2 °F 73% 29.69 in 10.0 mi ESE 10.4 mph - N/A   Scattered Clouds
6:35 PM 66.2 °F 57.2 °F 73% 29.67 in 10.0 mi ESE 10.4 mph 16.1 mph N/A   Scattered Clouds
6:55 PM 66.2 °F 57.2 °F 73% 29.65 in 10.0 mi ESE 13.8 mph - N/A   Scattered Clouds
7:15 PM 66.2 °F 57.2 °F 73% 29.63 in 10.0 mi NE 6.9 mph - N/A Rain Light Rain
7:35 PM 64.4 °F 57.2 °F 77% 29.64 in 10.0 mi NNE 13.8 mph 19.6 mph N/A Rain Light Rain
7:55 PM 66.2 °F 57.2 °F 73% 29.65 in 10.0 mi East 8.1 mph - N/A   Scattered Clouds
8:15 PM 66.2 °F 59.0 °F 78% 29.67 in 10.0 mi NE 6.9 mph - N/A Rain Light Rain
8:35 PM 62.6 °F 57.2 °F 82% 29.67 in 10.0 mi North 9.2 mph - N/A   Overcast
8:55 PM 62.6 °F 57.2 °F 82% 29.64 in 10.0 mi ENE 11.5 mph 16.1 mph N/A   Overcast
9:15 PM 60.8 °F 55.4 °F 82% 29.64 in 5.0 mi East 9.2 mph - 0.08 in Rain Heavy Rain
9:35 PM 60.8 °F 55.4 °F 82% 29.68 in 7.0 mi North 21.9 mph 28.8 mph 0.13 in Rain Heavy Rain
9:55 PM 59.0 °F 55.4 °F 88% 29.68 in 5.0 mi NE 15.0 mph 19.6 mph 0.27 in Rain Heavy Rain
10:15 PM 57.2 °F 55.4 °F 94% 29.67 in 3.0 mi ENE 9.2 mph - 0.17 in Rain Heavy Rain
10:35 PM 57.2 °F 53.6 °F 88% 29.68 in 10.0 mi NNE 11.5 mph - 0.26 in Rain Light Rain
10:55 PM 57.2 °F 53.6 °F 88% 29.69 in 10.0 mi NE 10.4 mph - 0.27 in Rain Rain
11:15 PM 57.2 °F 53.6 °F 88% 29.66 in 10.0 mi East 8.1 mph - N/A   Mostly Cloudy
11:35 PM 55.4 °F 53.6 °F 94% 29.67 in 10.0 mi NE 6.9 mph - N/A   Scattered Clouds
11:55 PM 55.4 °F 53.6 °F 94% 29.67 in 10.0 mi Calm Calm - N/A   Scattered Clouds